Location: Emory University Observatory
(33.7903°N, 84.3267°W)
Time: 06:15:52
(UTC-05:00)

Tiangong 2 - Pass Details

Date: 07 October 2017
Orbit: 386 x 390 km, 42.8° (Epoch: 16 December)

Event Time Altitude Azimuth Distance (km) Brightness Sun altitude
Exits shadow 06:43:55 16° 238° (WSW) 1,118 2.9 -11.7°
Maximum altitude 06:46:22 86° 155° (SSE) 395 1.1 -11.2°
Drops below altitude 10° 06:49:35 10° 62° (ENE) 1,425 5.0 -10.5°
Sets 06:51:41 0° 61° (ENE) 2,284 6.2 -10.1°
